GFSSE_con_3kmhel_180.txt.gz
Helicity
126 99 77 67 52 20 22 18 25 31 46 63 69 69 69 70 78 75 65 60 59 60 63 61 60 57 52 45 39 34 34 28 32 34 29 32 27 23 17 21 5 9 33
148 141 100 72 65 57 48 36 42 55 60 73 71 71 70 69 75 78 72 68 62 57 55 53 52 54 52 44 34 33 37 33 28 28 21 18 25 17 9 11 7 29 20
213 153 119 87 79 74 80 81 88 96 78 63 62 68 73 80 75 71 73 64 60 58 59 57 52 48 46 38 26 28 28 29 29 25 2 3 33 37 15 4 -0 8 10
218 160 136 114 95 95 105 110 110 111 110 92 94 105 105 126 139 128 118 111 94 78 66 62 61 65 55 45 33 27 26 24 23 11 7 21 17 46 37 11 -2 2 8
219 147 126 128 116 101 106 113 123 129 100 96 100 117 147 145 130 126 116 104 109 103 90 91 89 79 70 60 45 39 37 27 17 4 15 15 13 70 46 21 7 23 14
216 155 124 141 123 104 116 118 136 126 118 129 134 148 149 151 142 144 138 132 126 123 115 110 112 110 101 86 72 58 44 40 16 -2 30 43 17 69 49 67 33 20 34
215 155 96 137 106 102 108 115 136 132 130 131 131 145 141 127 130 122 115 112 101 96 96 99 109 116 127 134 140 133 105 57 28 23 29 26 37 65 38 43 35 25 24
189 128 61 77 139 130 120 130 150 151 155 168 162 150 152 153 137 129 119 111 104 93 92 93 96 108 116 124 129 123 120 96 39 34 43 38 110 68 42 36 42 27 26
182 131 91 103 105 130 141 146 157 148 146 152 150 147 133 133 124 118 112 106 108 101 97 89 90 93 88 92 105 111 112 97 76 75 98 59 174 93 55 45 45 34 24
141 102 80 93 90 83 84 104 113 116 129 141 141 128 115 89 95 108 84 99 91 89 84 82 77 75 74 68 76 80 77 46 49 82 129 170 186 144 103 65 47 48 46
100 110 67 51 58 57 66 71 78 99 117 113 110 129 95 100 91 82 96 98 104 97 97 87 82 76 74 20 37 50 45 64 68 72 85 168 168 146 150 155 152 91 52
89 86 81 71 71 62 69 74 86 110 139 143 138 124 104 99 94 72 68 73 71 85 58 65 77 57 60 56 55 39 75 78 55 94 118 158 162 165 158 172 160 169 141
101 90 92 89 83 82 82 76 88 99 105 116 138 126 110 95 91 83 72 68 63 67 55 55 52 56 69 69 69 64 68 67 86 77 142 134 155 156 143 147 158 184 190
113 94 84 76 71 64 55 72 86 99 105 117 141 142 120 102 98 90 79 78 74 69 71 64 56 56 56 56 53 57 68 72 78 79 108 109 125 131 145 158 162 178 187
110 92 67 55 55 60 74 88 93 97 114 120 125 138 116 107 100 92 86 81 77 71 70 69 67 62 58 55 52 53 56 59 71 78 85 87 159 203 226 254 277 278 279
112 92 74 59 55 67 91 101 108 119 116 124 124 126 121 104 95 89 86 82 76 69 65 60 66 65 66 66 58 61 62 64 75 81 88 56 60 118 171 200 223 274 262
108 93 64 59 59 71 82 91 105 106 106 109 107 122 122 117 98 82 79 80 78 71 66 64 62 49 52 55 58 57 56 71 97 108 114 127 78 48 103 167 177 200 220
122 96 66 57 67 77 93 88 92 94 93 98 96 96 109 110 100 83 79 80 77 72 76 77 78 75 72 71 62 63 71 80 96 106 127 132 141 126 51 126 153 167 195
124 103 89 86 85 90 95 99 100 92 96 94 91 95 99 99 91 64 60 65 72 86 94 95 85 87 87 81 58 58 69 88 100 122 132 125 136 139 132 89 99 89 153
142 121 110 95 93 94 87 79 83 86 91 89 83 73 66 53 65 68 87 103 97 108 105 107 97 89 82 84 52 48 46 86 112 117 119 137 149 126 121 135 134 89 100
166 137 110 97 90 70 61 63 59 71 65 60 70 79 85 96 99 95 77 83 81 94 95 96 75 75 83 93 35 34 31 41 99 108 108 114 131 110 121 129 127 143 137
163 145 119 102 81 56 57 66 67 71 81 79 76 87 100 107 112 108 107 99 100 83 96 93 91 71 68 83 70 26 50 12 65 103 118 114 116 103 113 112 141 144 153
159 130 116 107 83 60 69 54 57 60 48 49 64 80 96 101 100 95 91 83 81 85 85 85 84 105 90 99 146 107 80 125 121 83 113 128 139 112 120 132 156 162 160
165 144 132 117 82 57 38 49 32 41 57 91 88 89 80 86 86 80 82 82 78 71 79 76 74 75 84 89 60 107 129 132 107 113 96 111 118 124 110 119 128 156 164
181 158 143 113 96 74 54 40 38 60 84 85 91 92 87 77 86 85 80 83 86 76 70 82 85 97 95 105 119 124 103 86 120 93 110 148 103 100 98 94 84 110 126
184 169 134 106 80 66 67 62 54 69 81 81 82 80 72 76 79 87 80 77 84 95 94 90 87 100 92 93 85 105 115 105 115 106 99 141 147 115 81 91 85 105 100

GFSSE_con_3kmhel_183.txt.gz
Helicity
169 116 120 104 63 38 18 8 7 18 31 49 57 59 65 70 77 69 70 60 53 45 41 34 33 33 27 25 26 23 21 20 25 25 21 24 35 41 29 17 35 43 27
246 150 150 124 104 88 42 20 19 27 39 52 51 56 61 65 70 66 60 62 59 54 47 37 34 35 33 29 24 21 17 11 10 9 -0 5 23 32 18 16 27 47 37
195 152 152 145 128 114 94 75 55 39 42 47 45 49 57 62 64 62 55 51 44 39 41 36 36 35 36 36 30 23 20 10 5 -3 -26 -12 79 25 29 12 12 21 25
191 218 169 163 126 121 109 86 76 84 85 83 78 73 81 107 104 112 116 102 98 85 69 56 54 54 41 33 32 25 22 12 2 -6 -22 8 -17 80 36 38 16 10 15
181 193 205 178 150 142 128 108 99 103 111 118 126 126 134 132 124 124 126 124 113 113 112 110 98 90 70 43 33 27 23 18 3 -11 5 25 -2 73 67 41 16 18 17
183 235 218 175 149 131 145 138 130 133 140 139 145 142 136 129 118 138 137 124 107 96 94 95 93 97 104 103 89 74 60 32 11 -6 6 49 24 92 76 65 72 57 35
211 220 225 199 160 146 158 184 173 164 159 148 158 158 155 138 123 120 118 102 85 74 75 81 82 83 89 95 89 75 63 48 28 19 8 29 75 125 83 64 54 53 33
206 181 185 151 149 142 151 175 168 158 152 146 147 158 139 114 100 104 103 102 89 80 76 76 72 73 74 70 73 75 71 56 33 26 3 73 217 142 84 65 57 48 34
183 136 101 61 79 126 151 135 124 119 112 119 128 110 95 93 92 86 89 94 87 80 75 74 68 65 61 52 54 54 52 37 33 55 98 4 215 194 101 62 52 47 40
153 147 63 15 99 130 133 113 117 119 127 135 127 97 73 47 58 103 85 99 87 78 76 74 70 62 51 30 29 36 38 26 -6 58 70 125 108 161 134 143 142 110 59
115 107 64 70 64 65 90 77 73 80 75 83 79 94 58 99 89 87 90 73 75 56 55 53 61 44 58 9 7 26 39 46 119 71 89 137 130 128 138 135 137 130 138
88 77 70 58 79 60 75 56 75 87 118 116 114 108 103 100 97 71 67 40 49 43 23 16 11 11 37 59 52 39 78 78 55 83 151 146 114 115 117 115 113 130 138
83 96 110 101 61 54 75 58 63 77 81 100 131 128 117 113 116 98 76 70 63 63 67 64 58 65 63 60 63 62 63 69 81 97 132 116 84 122 124 118 127 129 161
123 125 116 96 80 83 59 90 82 89 104 124 146 142 134 126 123 112 101 89 81 74 78 75 70 60 59 59 60 64 69 75 90 78 107 77 84 154 223 246 264 251 226
132 125 115 109 107 103 110 111 118 112 140 135 144 171 162 150 130 115 103 93 89 88 85 80 82 72 67 72 68 71 68 57 62 81 105 49 3 66 117 162 270 259 261
155 133 117 106 90 85 115 105 105 117 112 141 157 171 170 148 134 116 112 110 107 99 92 86 85 80 78 72 72 73 72 75 80 76 109 22 -19 12 67 119 153 180 190
137 145 108 101 92 88 86 91 114 117 123 134 135 156 152 144 122 104 103 103 101 85 78 76 72 73 73 76 76 63 50 57 92 98 119 160 36 -8 18 42 120 156 153
172 127 108 101 87 78 114 109 120 126 127 125 120 121 133 131 128 112 107 101 87 70 71 78 86 92 90 85 79 75 73 63 75 87 109 130 130 146 33 4 22 54 126
154 138 127 108 107 122 129 152 148 122 126 119 121 119 123 131 121 98 91 75 57 69 85 96 96 99 96 95 70 65 64 76 62 102 103 111 98 109 124 39 23 19 12
183 152 133 107 119 126 127 109 109 96 102 105 109 104 100 88 92 73 74 92 94 108 110 114 111 96 85 90 65 54 60 80 93 104 107 113 104 95 108 120 107 62 -26
188 167 142 152 138 120 107 118 114 126 113 111 110 109 107 107 106 118 101 102 99 109 115 112 99 99 97 90 64 86 40 50 64 95 110 122 124 107 103 119 128 138 116
199 195 184 158 137 133 141 146 142 125 132 112 98 99 104 108 114 105 115 111 122 106 110 115 112 95 83 92 106 60 86 86 51 97 101 131 111 122 99 113 124 137 142
196 186 170 158 148 146 160 123 115 93 62 55 58 84 101 105 114 119 120 113 104 103 94 95 109 118 106 117 133 147 151 215 205 89 61 112 96 99 126 115 139 135 143
154 171 162 154 150 146 86 94 74 75 82 128 99 100 94 104 110 101 98 97 100 89 96 87 90 102 124 134 130 143 140 150 200 218 104 59 72 115 100 123 116 130 127
190 191 195 173 156 134 96 97 83 92 108 90 95 82 90 90 92 94 90 85 85 81 83 91 88 99 107 124 133 148 160 119 175 160 187 245 158 95 115 111 117 134 125
194 196 207 165 174 133 109 103 88 94 88 85 78 79 92 88 85 90 82 89 99 94 78 79 76 96 103 117 105 111 132 142 142 149 167 169 158 140 78 98 99 115 113

GFSSE_con_3kmhel_189.txt.gz
Helicity
95 151 154 140 140 123 105 91 77 69 61 55 34 32 29 32 34 38 42 39 33 30 31 28 19 23 30 29 29 26 26 24 23 28 21 10 4 10 9 35 46 20 21
208 177 231 194 160 136 108 86 78 69 61 52 36 33 38 39 42 46 48 50 55 49 41 35 30 27 35 32 28 22 16 21 25 23 13 -6 -15 -6 8 16 38 22 20
236 240 275 260 202 164 103 91 75 63 58 55 45 45 48 55 75 79 80 80 85 87 79 68 60 59 56 43 34 26 19 15 16 21 18 -4 -7 -7 9 2 17 25 19
224 238 262 275 213 182 165 141 114 89 70 73 79 91 89 83 91 72 65 70 63 59 65 53 50 50 59 60 55 50 42 33 23 43 34 48 33 33 40 8 16 22 24
211 201 245 258 253 221 185 163 158 160 150 132 104 93 95 83 73 60 63 74 67 62 54 40 41 43 48 51 52 49 48 47 44 62 70 35 24 31 41 65 46 42 53
237 240 236 232 232 200 171 154 144 144 145 126 108 89 80 80 74 82 80 72 69 70 57 44 46 49 51 44 41 45 47 52 51 69 66 87 74 129 97 89 78 69 62
227 204 203 202 208 170 153 135 134 132 135 132 131 115 99 85 80 82 76 73 72 67 54 39 35 40 38 38 42 39 38 46 57 83 65 111 115 93 158 145 98 73 63
207 179 172 165 170 162 152 174 176 163 158 142 137 123 100 95 94 84 76 73 68 59 53 45 43 42 43 37 34 25 34 53 86 89 102 82 116 135 167 189 166 122 101
162 154 144 146 147 154 156 174 184 179 166 146 116 105 88 85 98 98 88 85 79 68 61 62 64 63 54 44 35 65 86 115 146 123 124 109 122 139 142 117 85 121 100
113 109 121 130 153 165 158 150 171 161 142 118 109 88 83 74 76 95 99 101 79 75 74 84 85 87 80 50 41 101 106 139 134 137 106 91 116 127 121 117 116 110 107
86 85 86 103 125 124 126 158 157 141 122 107 96 88 59 67 89 107 97 103 96 93 93 85 103 96 108 101 69 90 120 181 122 114 102 137 116 90 93 104 121 161 162
97 87 62 92 98 86 112 117 118 131 125 137 121 78 84 117 111 129 117 120 110 120 103 106 60 97 93 67 64 87 117 136 84 97 100 115 104 71 68 118 177 194 209
125 109 67 83 77 68 94 65 78 101 156 180 207 143 132 160 189 165 156 164 141 147 139 126 102 103 93 68 57 67 101 122 59 66 96 129 133 121 131 136 144 167 157
113 77 68 89 123 79 118 115 104 126 148 171 211 247 188 195 215 208 209 191 178 143 169 136 124 132 120 85 81 81 97 111 78 82 95 95 87 97 113 136 170 169 149
118 137 174 181 208 187 273 234 241 207 173 194 231 263 207 220 206 204 205 188 174 165 164 139 138 132 132 125 86 83 95 123 78 79 83 97 52 49 64 96 137 199 201
179 225 244 233 247 289 319 319 285 260 212 190 223 243 241 223 210 187 189 182 188 176 161 149 136 144 135 126 117 82 78 113 83 69 81 61 66 49 42 66 128 171 216
412 398 314 238 275 297 290 283 256 227 197 188 196 215 219 235 233 176 170 191 201 165 180 179 171 154 151 126 139 162 100 103 122 78 67 33 42 77 72 64 99 147 177
546 460 312 273 279 267 285 286 287 251 198 167 173 186 210 242 222 181 189 230 226 174 171 177 174 166 144 138 142 177 122 120 168 164 103 64 45 72 95 114 123 112 140
528 403 317 300 271 304 305 275 279 258 198 158 176 180 196 227 227 166 199 240 182 159 172 164 163 167 123 142 129 156 126 166 143 152 120 84 114 123 110 173 130 194 163
524 425 359 314 311 314 306 292 270 247 248 188 201 217 220 236 244 159 204 228 163 169 181 179 172 177 119 140 138 153 115 165 160 197 160 117 97 110 142 150 146 164 205
637 546 459 343 315 283 266 239 236 261 244 213 174 181 206 233 240 217 192 220 155 160 159 175 174 209 148 137 124 175 189 207 257 231 173 157 134 110 65 67 108 93 58
693 601 459 345 292 223 186 161 181 226 199 189 184 182 185 212 208 222 196 205 170 155 175 197 211 196 134 142 141 184 237 317 321 216 143 141 135 66 58 5 -12 23 35
661 566 437 327 222 190 198 267 315 298 245 202 178 162 186 202 204 190 189 170 172 166 155 165 161 197 153 161 215 177 261 264 329 311 385 235 156 102 53 19 4 -45 -21
517 484 383 291 214 285 309 338 269 242 209 163 134 154 169 173 161 173 158 160 139 132 133 141 157 196 150 166 139 251 281 251 339 381 385 355 192 133 8 -15 -17 -53 -55
449 392 330 277 295 305 275 212 222 229 231 232 170 155 139 141 145 136 140 143 142 121 132 161 195 203 170 140 168 192 170 187 219 274 289 227 197 162 112 35 11 -67 -52
355 329 327 286 282 264 254 179 245 309 291 221 154 135 109 105 108 117 131 146 155 149 149 143 174 191 198 142 110 117 102 71 88 112 126 156 266 186 145 88 -6 -46 -55

GFSSE_con_3kmhel_192.txt.gz
Helicity
13 47 81 104 139 115 119 117 108 106 101 89 74 61 58 63 66 74 81 72 67 60 58 45 44 45 43 38 31 27 30 33 40 40 46 46 23 23 26 32 24 9 16
39 75 136 139 147 120 119 112 100 96 94 89 74 69 53 55 56 58 66 71 63 65 65 69 58 50 50 44 38 34 40 54 58 58 62 32 6 -5 19 19 18 9 16
118 158 148 151 159 121 121 116 99 91 96 93 79 69 68 64 62 58 53 60 60 52 52 60 52 49 53 47 48 48 49 60 64 74 74 37 -9 -8 23 18 10 21 19
151 185 193 203 190 141 141 131 112 102 99 102 93 84 68 63 61 55 54 51 47 40 40 43 37 35 36 39 45 44 53 70 67 73 69 45 -6 -1 23 13 19 24 23
188 205 243 232 211 192 182 175 152 131 115 102 92 88 89 72 70 58 49 54 44 35 34 33 36 37 32 34 42 51 71 86 79 79 94 108 41 45 59 38 39 45 43
180 195 205 225 231 214 211 191 157 142 140 137 115 97 95 69 64 66 62 62 59 50 46 39 46 45 39 37 38 56 94 112 100 95 119 148 110 111 112 104 82 67 49
177 171 185 224 227 199 181 165 168 181 161 127 120 108 82 58 67 77 78 71 65 55 55 50 60 56 44 40 50 73 88 95 100 113 154 185 149 118 109 121 122 92 69
167 156 167 169 188 191 182 167 176 169 150 130 126 107 94 86 83 85 81 81 75 80 80 94 99 88 74 76 93 95 107 135 106 117 170 182 191 159 139 137 142 123 107
139 172 157 177 178 177 172 191 189 174 149 139 118 110 95 88 90 98 101 103 104 111 122 130 121 108 87 80 102 119 131 131 116 93 123 126 155 149 151 149 147 132 93
130 142 133 164 165 159 166 177 185 178 167 151 138 137 115 105 100 111 120 129 141 144 155 150 135 126 143 108 121 134 117 133 118 123 120 103 124 120 131 128 135 167 187
127 133 126 121 126 141 163 163 179 167 162 159 151 130 115 104 115 128 122 145 154 145 145 125 131 120 114 112 135 145 127 112 146 143 120 145 113 96 97 123 131 145 157
155 129 100 107 122 115 127 195 204 222 218 173 129 109 122 117 112 116 139 159 171 184 183 146 131 134 107 82 96 124 89 96 116 121 107 127 129 117 101 102 140 159 179
147 126 78 93 105 108 146 185 206 218 206 195 173 139 140 157 158 167 171 170 147 170 144 135 132 127 108 82 87 105 99 99 102 109 141 165 157 147 128 121 122 130 186
141 107 93 101 82 122 163 153 161 181 191 235 223 187 186 191 201 201 195 169 165 163 168 160 158 161 149 109 89 105 123 101 93 104 121 133 124 126 125 153 209 134 223
163 156 121 128 116 170 170 185 180 205 200 203 229 227 206 206 219 210 188 177 177 173 179 179 182 186 182 156 132 137 126 103 111 111 92 118 110 105 127 164 175 215 248
165 171 159 204 198 225 214 235 235 202 198 219 231 235 232 221 204 191 174 181 190 187 179 179 187 187 186 171 180 149 121 106 121 114 100 103 118 98 117 160 203 263 250
198 171 185 266 292 302 304 289 242 202 193 190 195 210 221 205 191 171 189 200 179 162 176 185 189 188 176 169 196 203 158 140 127 96 82 83 93 117 104 115 144 218 221
350 291 273 302 313 322 320 305 264 206 178 179 199 220 224 188 164 201 212 203 171 180 182 187 190 174 176 197 203 221 184 171 121 114 107 78 64 99 116 175 132 152 157
490 486 421 370 366 381 370 326 269 223 213 189 192 214 239 193 143 192 203 185 175 178 178 172 186 163 184 201 206 222 213 173 133 138 133 118 118 105 94 162 152 139 104
655 566 536 520 463 436 432 369 330 264 220 190 183 213 236 243 187 183 195 199 175 183 201 202 200 187 163 169 226 265 292 234 220 184 162 136 128 105 74 56 41 50 94
741 634 601 559 478 481 446 387 329 271 214 187 182 212 228 211 173 192 188 192 186 192 198 207 158 162 201 177 212 375 354 317 311 254 196 181 150 77 60 33 -4 -8 18
757 646 566 468 443 395 362 356 347 291 218 173 164 199 214 202 185 199 206 207 186 173 204 215 187 134 162 212 205 300 333 359 437 353 261 203 123 68 42 -18 -34 -32 -26
768 670 530 362 361 334 347 442 430 358 282 225 204 182 174 181 177 190 183 154 150 153 171 187 180 147 132 204 266 223 294 299 420 372 341 220 177 76 3 -44 -74 -82 -60
711 613 422 303 316 316 402 456 386 297 259 195 177 172 171 157 174 167 155 147 156 146 172 178 179 165 134 146 204 285 290 317 349 387 373 242 182 128 77 -12 -50 -68 -63
607 459 338 284 319 338 377 328 302 292 245 222 188 152 145 146 141 149 146 140 146 150 162 168 181 163 157 164 150 176 271 373 361 319 301 284 251 163 102 -4 -54 -48 -39
482 373 264 280 307 321 298 297 317 304 259 240 183 161 134 130 130 133 131 146 150 151 162 161 166 159 139 162 180 164 127 158 207 255 250 225 225 160 102 21 -37 -52 -13

GFSSE_con_3kmhel_198.txt.gz
Helicity
121 97 53 39 43 68 74 91 109 130 143 154 143 125 102 86 70 68 72 75 73 72 74 74 73 81 89 82 70 64 56 46 35 20 -1 -10 1 14 16 17 22 8 5
186 130 75 60 57 70 86 103 113 134 137 142 134 121 102 92 91 87 87 92 90 81 88 92 93 94 88 81 77 69 56 48 40 30 3 -16 -7 17 17 19 26 19 15
204 150 108 72 72 69 85 101 109 127 130 137 136 129 115 101 104 103 98 78 68 62 58 60 71 79 74 82 79 79 71 65 60 53 34 -1 -8 11 30 22 19 26 21
203 157 106 83 87 73 87 95 94 110 121 134 139 129 116 104 90 80 74 68 69 60 51 50 52 62 66 63 68 90 90 81 90 92 79 39 12 23 40 31 28 25 24
149 100 84 92 104 88 87 85 86 99 114 128 127 132 110 99 93 83 73 66 77 69 63 53 51 54 55 59 79 79 84 94 117 123 147 135 113 77 73 44 55 52 31
113 105 106 114 121 105 93 81 88 100 110 110 144 135 129 108 99 100 80 70 84 84 70 63 60 53 53 68 71 68 68 93 128 158 171 175 149 134 134 126 108 81 65
165 152 116 110 115 112 103 90 103 108 145 163 158 146 136 119 102 91 97 89 97 95 87 83 80 71 76 69 71 65 78 95 113 149 170 173 126 123 131 137 130 89 77
165 185 168 128 132 135 98 88 125 153 166 155 134 130 130 115 102 102 102 95 110 111 116 103 91 84 87 85 87 76 95 118 129 143 139 133 153 148 137 140 147 131 102
171 211 237 265 240 200 185 198 196 188 159 142 141 135 126 115 116 117 118 112 125 122 127 133 125 113 98 91 100 110 126 145 146 141 139 123 157 165 171 184 180 184 165
150 173 207 239 209 206 202 196 185 170 156 148 151 132 137 138 140 142 137 126 128 130 131 133 141 131 110 96 112 123 140 161 153 161 156 132 136 125 134 145 141 165 189
155 166 171 197 212 189 183 160 167 169 159 156 155 156 176 170 169 164 149 131 132 139 148 144 136 129 128 122 129 138 151 135 156 151 138 151 117 115 114 120 135 159 221
202 164 141 157 168 152 169 184 197 198 201 201 180 168 167 165 141 147 147 158 167 168 168 154 133 129 106 83 95 132 127 150 156 141 118 116 85 74 104 116 133 215 232
175 161 133 157 164 165 160 174 196 198 202 198 190 177 176 155 127 138 138 142 140 154 145 144 124 112 92 68 85 114 143 160 149 138 132 139 164 170 125 128 195 193 214
174 160 157 182 195 181 178 198 197 193 182 181 172 174 165 142 126 135 136 137 140 133 128 120 105 103 109 95 107 140 149 148 144 140 182 217 153 141 203 202 199 195 175
208 224 219 228 224 210 216 226 232 224 201 178 168 154 133 141 131 133 136 142 150 136 124 115 121 130 129 115 116 134 152 157 161 152 141 182 169 187 249 237 191 159 146
185 232 245 246 233 231 240 231 220 217 219 199 177 153 140 138 137 136 130 129 131 119 105 99 109 135 147 127 132 156 155 156 153 156 140 149 180 188 182 155 164 160 150
189 209 282 297 301 292 279 263 228 217 220 207 184 165 161 151 142 136 126 114 99 102 102 107 126 149 183 174 190 194 184 170 173 178 153 127 114 121 147 129 125 131 143
215 248 256 287 284 280 287 264 238 215 220 220 191 164 157 161 144 141 143 130 111 112 110 120 125 181 183 176 216 218 224 233 220 205 173 152 155 139 128 123 115 100 102
261 313 296 341 317 279 284 297 288 255 220 187 186 197 189 192 164 152 138 129 123 125 134 132 162 162 196 260 315 317 316 279 231 211 207 195 167 128 87 104 110 115 111
318 343 381 392 389 358 331 322 334 331 278 216 182 184 192 184 170 176 162 137 116 124 123 139 163 215 222 312 397 401 345 299 282 262 220 190 172 136 104 92 63 63 126
396 447 471 531 478 491 418 372 344 341 306 238 200 186 186 187 173 168 156 143 124 118 111 144 191 237 310 351 414 460 410 365 346 298 252 211 193 147 104 49 9 25 63
496 511 545 608 576 473 431 406 349 358 309 241 184 188 159 142 132 145 149 142 127 124 117 128 147 191 247 277 287 319 310 323 381 356 295 249 197 128 86 37 13 33 56
431 541 626 690 637 594 559 516 469 414 356 275 209 183 156 139 136 139 131 126 113 100 115 109 128 158 190 228 296 243 252 255 360 340 339 286 203 130 69 30 25 36 53
392 535 642 710 721 669 524 441 353 332 276 180 150 134 154 153 139 119 133 136 126 128 131 115 105 122 167 208 282 282 289 282 321 317 312 272 204 145 62 26 3 13 39
421 556 614 667 689 612 510 428 375 288 198 158 155 146 135 155 141 117 116 121 121 119 122 109 117 122 141 180 248 278 301 313 331 294 272 270 225 128 66 35 22 8 21
317 464 568 627 699 588 296 169 143 131 122 126 120 122 109 135 133 110 96 102 115 107 95 101 116 140 135 150 172 197 222 295 316 296 288 266 190 136 81 47 35 22 10

GFSSE_con_3kmhel_204.txt.gz
Helicity
95 145 98 93 84 93 101 76 44 92 116 147 149 145 133 121 117 102 98 91 83 83 83 73 71 61 51 45 44 41 35 23 15 12 8 10 16 15 13 6 2 29 31
145 151 110 88 99 103 107 114 73 97 113 136 141 126 112 108 101 81 68 65 61 76 72 69 73 78 64 48 45 37 30 17 6 2 -8 3 17 22 19 18 50 36 32
208 175 138 106 94 97 111 111 95 127 162 106 124 118 95 79 79 86 86 86 80 81 83 61 54 63 53 52 50 43 27 13 -2 -14 -25 -20 46 28 28 25 25 25 23
222 196 154 111 83 82 83 98 107 133 162 126 118 120 98 99 106 112 97 75 65 61 57 60 53 57 51 52 53 46 38 16 -0 -16 -12 15 46 42 36 34 30 32 28
203 157 160 89 63 74 89 87 96 175 99 137 120 104 98 101 100 98 88 65 58 50 52 56 52 46 57 59 60 47 45 24 -19 -37 46 56 84 68 65 50 38 52 74
171 144 138 76 64 82 98 85 110 122 88 106 100 99 93 99 93 90 76 70 63 50 53 59 57 41 43 57 69 68 36 1 -51 88 59 90 84 92 107 111 104 95 83
152 158 123 59 58 71 102 116 92 88 111 125 142 138 112 101 93 82 72 67 65 56 54 63 64 57 47 60 73 74 54 30 61 86 74 70 85 105 126 118 111 104 110
131 138 150 107 86 103 115 102 112 122 161 188 191 164 135 116 104 89 80 72 65 68 69 75 77 76 71 76 90 87 63 26 61 80 98 116 134 143 129 131 145 166 183
104 95 125 133 137 131 120 150 187 203 192 168 190 178 145 124 104 102 99 92 86 82 84 94 93 96 97 103 115 102 88 86 63 47 62 73 110 107 107 123 151 182 163
103 110 115 110 105 103 102 159 203 219 200 199 176 160 152 130 129 124 112 106 106 102 98 101 101 102 106 114 114 101 79 45 84 87 87 97 108 97 158 196 201 186 167
115 132 139 138 127 109 103 156 229 247 228 203 158 138 115 122 121 97 194 129 114 110 113 115 107 108 120 129 113 76 14 70 64 78 79 80 91 108 151 172 180 173 146
161 150 149 150 159 159 213 255 289 257 208 168 150 129 135 138 143 181 176 157 125 135 123 118 106 68 20 71 80 43 80 77 84 133 96 54 106 185 156 139 142 137 127
119 154 151 173 181 172 213 253 256 238 189 166 149 132 148 158 163 166 168 190 132 89 99 96 80 70 93 85 91 82 71 67 93 122 146 163 209 187 155 139 128 138 151
113 105 134 155 164 197 214 217 240 229 204 183 164 166 163 161 169 163 147 151 122 80 97 91 107 125 116 124 112 88 86 85 102 130 194 299 264 203 135 133 144 146 156
82 73 96 150 151 171 182 190 180 181 163 160 165 155 141 165 183 151 134 153 148 89 80 88 116 124 131 127 110 103 124 135 126 126 181 310 260 201 157 160 140 129 125
65 58 96 140 149 167 166 162 166 169 164 166 175 168 181 178 178 132 125 159 150 102 93 99 119 135 138 127 118 122 125 127 146 141 157 214 253 198 182 158 151 141 132
45 79 114 124 145 163 136 134 151 163 193 182 164 172 187 189 171 142 129 142 124 129 120 127 134 136 133 132 140 143 156 153 172 171 146 148 176 210 188 161 157 150 151
53 67 81 104 144 170 142 138 146 150 170 160 183 184 184 160 133 113 136 127 123 125 137 138 136 136 133 124 135 149 176 182 185 181 182 148 112 92 135 167 167 165 170
40 85 62 90 120 165 211 192 174 178 148 200 188 171 168 142 118 115 124 128 129 137 143 138 124 122 140 156 166 182 186 176 167 184 179 158 153 139 92 108 140 176 181
43 70 89 86 124 165 252 265 245 225 195 211 180 169 182 164 146 141 144 159 151 151 165 178 146 150 151 172 183 205 207 190 195 181 161 134 128 128 126 116 75 108 190
56 63 114 85 136 208 271 301 302 285 248 268 225 200 187 191 156 134 136 134 145 153 157 163 157 161 171 173 200 224 237 217 197 167 145 140 145 153 135 117 101 87 73
42 38 56 92 184 210 224 313 354 301 265 250 245 223 195 178 161 145 135 136 141 153 153 156 153 178 176 145 157 185 201 193 181 160 151 161 159 136 131 130 115 116 116
58 54 54 82 199 178 219 417 489 543 490 378 303 282 287 245 216 192 178 198 174 154 145 134 129 130 135 106 138 167 178 145 186 149 152 167 145 144 118 112 110 117 136
92 80 80 141 130 205 337 477 561 558 503 499 482 551 497 460 365 309 227 164 155 153 132 130 121 116 114 125 113 175 179 224 104 139 148 176 156 141 139 106 95 107 111
77 59 52 108 132 198 274 391 491 593 570 594 555 514 476 363 353 287 207 156 110 123 120 111 107 90 83 90 123 121 157 140 156 169 178 168 158 148 145 132 114 104 98
10 -11 -8 16 79 151 212 274 327 326 259 279 322 202 275 256 276 305 181 124 97 80 95 131 115 98 115 92 85 92 112 132 129 130 143 153 159 156 155 134 103 95 74